TimeEDT,TemperatureF,Dew PointF,Humidity,Sea Level PressureIn,VisibilityMPH,Wind Direction,Wind SpeedMPH,Gust SpeedMPH,PrecipitationIn,Events,Conditions,WindDirDegrees,DateUTC
12:52 AM,84.9,71.1,63,29.77,9.0,NW,13.8,20.7,N/A,,Scattered Clouds,310,2013-07-20 04:52:00
1:52 AM,82.9,64.9,54,29.76,10.0,SW,4.6,-,N/A,,Clear,230,2013-07-20 05:52:00
2:52 AM,81.0,64.9,58,29.74,10.0,SSW,4.6,-,N/A,,Clear,200,2013-07-20 06:52:00
3:52 AM,80.1,64.0,58,29.74,10.0,SW,3.5,-,N/A,,Clear,230,2013-07-20 07:52:00
4:52 AM,77.0,66.0,69,29.72,10.0,North,3.5,-,N/A,,Clear,10,2013-07-20 08:52:00
5:52 AM,75.9,66.0,71,29.73,10.0,Calm,Calm,-,N/A,,Clear,0,2013-07-20 09:52:00
6:52 AM,78.1,69.1,74,29.74,10.0,Calm,Calm,-,N/A,,Clear,0,2013-07-20 10:52:00
7:52 AM,84.0,73.9,72,29.74,6.0,WNW,5.8,-,N/A,,Haze,290,2013-07-20 11:52:00
8:52 AM,84.0,73.9,72,29.74,6.0,WSW,3.5,-,N/A,,Haze,240,2013-07-20 12:52:00
9:52 AM,84.0,73.0,69,29.73,7.0,West,8.1,-,N/A,,Clear,270,2013-07-20 13:52:00
10:52 AM,89.1,70.0,53,29.71,10.0,WSW,6.9,-,N/A,,Clear,240,2013-07-20 14:52:00
11:52 AM,88.0,70.0,55,29.70,10.0,Variable,6.9,-,N/A,,Clear,0,2013-07-20 15:52:00
12:52 PM,91.0,69.1,48,29.70,10.0,WSW,9.2,16.1,N/A,,Clear,240,2013-07-20 16:52:00
1:52 PM,91.0,69.1,48,29.69,10.0,WSW,13.8,19.6,N/A,,Clear,250,2013-07-20 17:52:00
2:52 PM,89.1,71.1,55,29.68,10.0,SSW,9.2,-,0.00,Thunderstorm,Scattered Clouds,210,2013-07-20 18:52:00
3:09 PM,89.6,71.6,55,29.69,10.0,WSW,8.1,-,N/A,,Partly Cloudy,250,2013-07-20 19:09:00
3:52 PM,90.0,66.0,45,29.68,10.0,WNW,15.0,20.7,N/A,,Scattered Clouds,290,2013-07-20 19:52:00
4:52 PM,90.0,66.0,45,29.69,10.0,WSW,9.2,18.4,N/A,,Clear,250,2013-07-20 20:52:00
5:52 PM,88.0,68.0,51,29.71,10.0,WSW,5.8,-,N/A,,Mostly Cloudy,250,2013-07-20 21:52:00
6:52 PM,87.1,64.9,48,29.72,10.0,WNW,5.8,-,N/A,,Clear,290,2013-07-20 22:52:00
7:52 PM,84.0,66.0,55,29.75,10.0,WNW,9.2,-,N/A,,Scattered Clouds,290,2013-07-20 23:52:00
8:52 PM,80.1,66.0,62,29.77,10.0,Calm,Calm,-,N/A,,Clear,0,2013-07-21 00:52:00
9:52 PM,78.1,62.1,58,29.79,10.0,Variable,5.8,-,N/A,,Clear,0,2013-07-21 01:52:00
10:52 PM,75.9,60.1,58,29.81,10.0,Calm,Calm,-,N/A,,Clear,0,2013-07-21 02:52:00
11:52 PM,73.9,60.1,62,29.83,10.0,NNW,5.8,-,N/A,,Clear,330,2013-07-21 03:52:00